Tabellarische Ansicht des 2.11.2017


Die einzelnen Werte des Tages

Uhrzeit Temperatur Luftdruck Luftfeuchte Wind Hi-Wind Taupunkt THW Index Wind Chill Heat Index Solar- strahlung Regen

00:00

11.3 C

1011.5 hpa

76 %

9.7 km/h aus 116

16.1 km/h aus S

7.2 C

10.0 C

10.2 C

11.1 C

0 W/m

0.00 mm

00:05

11.3 C

1011.5 hpa

76 %

11.3 km/h aus 111

22.5 km/h aus SW

7.3 C

9.8 C

10.1 C

11.1 C

0 W/m

0.00 mm

00:10

11.4 C

1011.5 hpa

76 %

14.5 km/h aus 116

22.5 km/h aus S

7.3 C

9.1 C

9.3 C

11.2 C

0 W/m

0.00 mm

00:15

11.4 C

1011.3 hpa

76 %

11.3 km/h aus 116

17.7 km/h aus S

7.4 C

9.9 C

10.2 C

11.2 C

0 W/m

0.00 mm

00:20

11.4 C

1011.3 hpa

76 %

11.3 km/h aus 116

20.9 km/h aus S

7.4 C

9.9 C

10.2 C

11.2 C

0 W/m

0.00 mm

00:25

11.4 C

1011.3 hpa

76 %

11.3 km/h aus 116

17.7 km/h aus S

7.4 C

9.9 C

10.2 C

11.2 C

0 W/m

0.00 mm

00:30

11.4 C

1011.2 hpa

77 %

11.3 km/h aus 114

19.3 km/h aus SSE

7.6 C

9.9 C

10.2 C

11.2 C

0 W/m

0.00 mm

00:35

11.5 C

1011.2 hpa

77 %

12.9 km/h aus 116

20.9 km/h aus SSE

7.6 C

9.6 C

9.8 C

11.3 C

0 W/m

0.00 mm

00:40

11.5 C

1011.2 hpa

77 %

14.5 km/h aus 116

22.5 km/h aus S

7.6 C

9.2 C

9.4 C

11.3 C

0 W/m

0.00 mm

00:45

11.6 C

1010.9 hpa

77 %

11.3 km/h aus 117

17.7 km/h aus SSW

7.7 C

10.1 C

10.3 C

11.3 C

0 W/m

0.00 mm

00:50

11.6 C

1010.9 hpa

77 %

9.7 km/h aus 118

16.1 km/h aus SSE

7.7 C

10.3 C

10.6 C

11.3 C

0 W/m

0.00 mm

00:55

11.6 C

1010.9 hpa

77 %

8.0 km/h aus 113

16.1 km/h aus SSE

7.7 C

10.7 C

10.9 C

11.4 C

0 W/m

0.00 mm

01:00

11.6 C

1010.8 hpa

77 %

8.0 km/h aus 116

17.7 km/h aus SSW

7.7 C

10.7 C

10.9 C

11.4 C

0 W/m

0.00 mm

01:05

11.6 C

1010.8 hpa

77 %

8.0 km/h aus 117

11.3 km/h aus SSW

7.7 C

10.6 C

10.8 C

11.3 C

0 W/m

0.00 mm

01:10

11.6 C

1010.8 hpa

77 %

8.0 km/h aus 117

14.5 km/h aus SSW

7.7 C

10.6 C

10.8 C

11.3 C

0 W/m

0.00 mm

01:15

11.6 C

1010.3 hpa

78 %

11.3 km/h aus 117

17.7 km/h aus S

7.8 C

10.1 C

10.3 C

11.3 C

0 W/m

0.00 mm

01:20

11.6 C

1010.3 hpa

78 %

9.7 km/h aus 114

22.5 km/h aus SSE

7.8 C

10.3 C

10.6 C

11.3 C

0 W/m

0.00 mm

01:25

11.6 C

1010.3 hpa

78 %

9.7 km/h aus 115

16.1 km/h aus S

7.8 C

10.3 C

10.6 C

11.3 C

0 W/m

0.00 mm

01:30

11.6 C

1010.1 hpa

79 %

12.9 km/h aus 116

19.3 km/h aus S

8.0 C

9.8 C

9.9 C

11.4 C

0 W/m

0.00 mm

01:35

11.6 C

1010.1 hpa

79 %

17.7 km/h aus 117

24.1 km/h aus S

8.0 C

8.7 C

8.9 C

11.4 C

0 W/m

0.00 mm

01:40

11.6 C

1010.1 hpa

79 %

12.9 km/h aus 117

19.3 km/h aus S

8.0 C

9.8 C

9.9 C

11.4 C

0 W/m

0.00 mm

01:45

11.6 C

1009.8 hpa

79 %

16.1 km/h aus 115

25.7 km/h aus SSW

8.0 C

9.1 C

9.2 C

11.4 C

0 W/m

0.00 mm

01:50

11.5 C

1009.8 hpa

80 %

16.1 km/h aus 114

20.9 km/h aus SSE

8.2 C

8.9 C

9.1 C

11.3 C

0 W/m

0.00 mm

01:55

11.5 C

1009.8 hpa

80 %

14.5 km/h aus 117

19.3 km/h aus S

8.2 C

9.3 C

9.4 C

11.3 C

0 W/m

0.00 mm

02:00

11.4 C

1009.7 hpa

80 %

12.9 km/h aus 117

19.3 km/h aus S

8.1 C

9.6 C

9.8 C

11.3 C

0 W/m

0.00 mm

02:05

11.4 C

1009.7 hpa

80 %

11.3 km/h aus 117

17.7 km/h aus SSE

8.1 C

10.0 C

10.2 C

11.3 C

0 W/m

0.00 mm

02:10

11.4 C

1009.7 hpa

80 %

9.7 km/h aus 116

17.7 km/h aus S

8.1 C

10.2 C

10.4 C

11.3 C

0 W/m

0.00 mm

02:15

11.4 C

1009.4 hpa

80 %

9.7 km/h aus 114

16.1 km/h aus S

8.1 C

10.2 C

10.4 C

11.3 C

0 W/m

0.00 mm

02:20

11.4 C

1009.4 hpa

80 %

9.7 km/h aus 115

14.5 km/h aus S

8.1 C

10.2 C

10.4 C

11.3 C

0 W/m

0.00 mm

02:25

11.4 C

1009.4 hpa

81 %

8.0 km/h aus 117

14.5 km/h aus SSE

8.3 C

10.6 C

10.7 C

11.3 C

0 W/m

0.00 mm

02:30

11.5 C

1009.2 hpa

80 %

12.9 km/h aus 117

19.3 km/h aus SSE

8.2 C

9.7 C

9.8 C

11.3 C

0 W/m

0.00 mm

02:35

11.6 C

1009.2 hpa

80 %

9.7 km/h aus 117

17.7 km/h aus SSW

8.2 C

10.4 C

10.6 C

11.4 C

0 W/m

0.00 mm

02:40

11.6 C

1009.2 hpa

79 %

9.7 km/h aus 115

16.1 km/h aus S

8.1 C

10.4 C

10.6 C

11.4 C

0 W/m

0.00 mm

02:45

11.6 C

1008.8 hpa

80 %

12.9 km/h aus 115

22.5 km/h aus SSW

8.3 C

9.8 C

10.0 C

11.4 C

0 W/m

0.00 mm

02:50

11.7 C

1008.8 hpa

80 %

14.5 km/h aus 117

19.3 km/h aus SSE

8.3 C

9.5 C

9.7 C

11.5 C

0 W/m

0.00 mm

02:55

11.6 C

1008.8 hpa

80 %

16.1 km/h aus 117

22.5 km/h aus SSE

8.3 C

9.1 C

9.3 C

11.4 C

0 W/m

0.00 mm

03:00

11.6 C

1008.3 hpa

80 %

16.1 km/h aus 118

25.7 km/h aus SSE

8.2 C

9.1 C

9.2 C

11.4 C

0 W/m

0.00 mm

03:05

11.6 C

1008.3 hpa

80 %

16.1 km/h aus 116

22.5 km/h aus SE

8.2 C

9.1 C

9.2 C

11.4 C

0 W/m

0.00 mm

03:10

11.6 C

1008.3 hpa

79 %

14.5 km/h aus 115

29.0 km/h aus SSE

8.0 C

9.4 C

9.6 C

11.4 C

0 W/m

0.00 mm

03:15

11.6 C

1008.4 hpa

79 %

11.3 km/h aus 116

24.1 km/h aus SSW

8.0 C

10.2 C

10.3 C

11.4 C

0 W/m

0.00 mm

03:20

11.6 C

1008.4 hpa

78 %

12.9 km/h aus 116

22.5 km/h aus SSW

7.9 C

9.8 C

10.0 C

11.4 C

0 W/m

0.00 mm

03:25

11.6 C

1008.4 hpa

78 %

12.9 km/h aus 116

20.9 km/h aus SSW

7.9 C

9.8 C

10.0 C

11.4 C

0 W/m

0.00 mm

03:30

11.7 C

1008.4 hpa

77 %

11.3 km/h aus 116

24.1 km/h aus SSW

7.8 C

10.2 C

10.4 C

11.4 C

0 W/m

0.00 mm

03:35

11.8 C

1008.4 hpa

77 %

12.9 km/h aus 115

22.5 km/h aus SSW

7.9 C

9.9 C

10.2 C

11.6 C

0 W/m

0.00 mm

03:40

11.8 C

1008.4 hpa

76 %

12.9 km/h aus 115

20.9 km/h aus SSW

7.7 C

10.0 C

10.3 C

11.6 C

0 W/m

0.00 mm

03:45

11.9 C

1008.2 hpa

75 %

16.1 km/h aus 117

24.1 km/h aus SSW

7.6 C

9.4 C

9.7 C

11.7 C

0 W/m

0.00 mm

03:50

12.0 C

1008.2 hpa

75 %

14.5 km/h aus 116

25.7 km/h aus SSW

7.7 C

9.8 C

10.1 C

11.7 C

0 W/m

0.00 mm

03:55

12.0 C

1008.2 hpa

75 %

16.1 km/h aus 117

25.7 km/h aus SSW

7.7 C

9.4 C

9.7 C

11.7 C

0 W/m

0.00 mm

04:00

12.1 C

1008.0 hpa

74 %

14.5 km/h aus 115

25.7 km/h aus SW

7.6 C

9.8 C

10.1 C

11.8 C

0 W/m

0.00 mm

04:05

12.1 C

1008.0 hpa

74 %

14.5 km/h aus 116

27.4 km/h aus SSW

7.6 C

9.8 C

10.1 C

11.8 C

0 W/m

0.00 mm

04:10

12.1 C

1008.0 hpa

74 %

12.9 km/h aus 117

22.5 km/h aus SSW

7.6 C

10.2 C

10.5 C

11.8 C

0 W/m

0.00 mm

04:15

12.0 C

1007.8 hpa

75 %

11.3 km/h aus 117

22.5 km/h aus SE

7.7 C

10.6 C

10.8 C

11.7 C

0 W/m

0.00 mm

04:20

12.0 C

1007.8 hpa

75 %

12.9 km/h aus 117

24.1 km/h aus SW

7.7 C

10.2 C

10.4 C

11.7 C

0 W/m

0.00 mm

04:25

11.9 C

1007.8 hpa

75 %

11.3 km/h aus 116

22.5 km/h aus SSE

7.6 C

10.5 C

10.8 C

11.7 C

0 W/m

0.00 mm

04:30

11.9 C

1007.7 hpa

75 %

11.3 km/h aus 113

22.5 km/h aus SW

7.6 C

10.5 C

10.8 C

11.7 C

0 W/m

0.00 mm

04:35

11.9 C

1007.7 hpa

76 %

9.7 km/h aus 117

19.3 km/h aus SSW

7.8 C

10.7 C

10.9 C

11.6 C

0 W/m

0.00 mm

04:40

11.9 C

1007.7 hpa

76 %

11.3 km/h aus 117

24.1 km/h aus SW

7.8 C

10.4 C

10.7 C

11.6 C

0 W/m

0.00 mm

04:45

11.8 C

1007.6 hpa

75 %

9.7 km/h aus 116

19.3 km/h aus SSW

7.5 C

10.6 C

10.9 C

11.6 C

0 W/m

0.00 mm

04:50

11.8 C

1007.6 hpa

76 %

9.7 km/h aus 116

20.9 km/h aus SW

7.7 C

10.6 C

10.9 C

11.6 C

0 W/m

0.00 mm

04:55

11.8 C

1007.6 hpa

76 %

9.7 km/h aus 114

17.7 km/h aus SW

7.7 C

10.5 C

10.8 C

11.5 C

0 W/m

0.00 mm

05:00

11.8 C

1007.5 hpa

76 %

8.0 km/h aus 115

16.1 km/h aus SSW

7.7 C

10.8 C

11.1 C

11.5 C

0 W/m

0.00 mm

05:05

11.7 C

1007.5 hpa

76 %

8.0 km/h aus 116

17.7 km/h aus S

7.6 C

10.7 C

11.0 C

11.4 C

0 W/m

0.00 mm

05:10

11.7 C

1007.5 hpa

76 %

11.3 km/h aus 117

19.3 km/h aus SW

7.6 C

10.2 C

10.4 C

11.4 C

0 W/m

0.00 mm

05:15

11.7 C

1007.2 hpa

76 %

11.3 km/h aus 116

19.3 km/h aus SSW

7.6 C

10.2 C

10.4 C

11.4 C

0 W/m

0.00 mm

05:20

11.7 C

1007.2 hpa

75 %

12.9 km/h aus 114

20.9 km/h aus SW

7.4 C

9.8 C

10.1 C

11.4 C

0 W/m

0.00 mm

05:25

11.7 C

1007.2 hpa

75 %

12.9 km/h aus 116

22.5 km/h aus WSW

7.4 C

9.8 C

10.1 C

11.4 C

0 W/m

0.00 mm

05:30

11.7 C

1007.3 hpa

75 %

9.7 km/h aus 117

22.5 km/h aus SW

7.4 C

10.4 C

10.7 C

11.4 C

0 W/m

0.00 mm

05:35

11.6 C

1007.3 hpa

75 %

8.0 km/h aus 117

19.3 km/h aus SSW

7.3 C

10.6 C

10.8 C

11.3 C

0 W/m

0.00 mm

05:40

11.5 C

1007.3 hpa

76 %

11.3 km/h aus 117

27.4 km/h aus WSW

7.4 C

10.0 C

10.2 C

11.3 C

0 W/m

0.00 mm

05:45

11.4 C

1007.2 hpa

76 %

12.9 km/h aus 114

24.1 km/h aus SW

7.4 C

9.6 C

9.8 C

11.2 C

0 W/m

0.00 mm

05:50

11.4 C

1007.2 hpa

76 %

9.7 km/h aus 115

19.3 km/h aus SSW

7.3 C

10.1 C

10.3 C

11.2 C

0 W/m

0.00 mm

05:55

11.3 C

1007.2 hpa

76 %

9.7 km/h aus 117

20.9 km/h aus SW

7.2 C

10.0 C

10.2 C

11.1 C

0 W/m

0.00 mm

06:00

11.2 C

1007.2 hpa

77 %

8.0 km/h aus 117

19.3 km/h aus SSW

7.3 C

10.3 C

10.4 C

11.1 C

0 W/m

0.00 mm

06:05

11.1 C

1007.2 hpa

77 %

6.4 km/h aus 116

12.9 km/h aus SSW

7.2 C

10.5 C

10.7 C

10.9 C

0 W/m

0.00 mm

06:10

11.0 C

1007.2 hpa

77 %

8.0 km/h aus 117

20.9 km/h aus SSW

7.1 C

10.1 C

10.2 C

10.8 C

0 W/m

0.00 mm

06:15

10.9 C

1007.1 hpa

77 %

8.0 km/h aus 114

16.1 km/h aus SSW

7.1 C

9.9 C

10.1 C

10.8 C

0 W/m

0.00 mm

06:20

10.8 C

1007.1 hpa

77 %

11.3 km/h aus 117

20.9 km/h aus SW

7.0 C

9.3 C

9.4 C

10.7 C

0 W/m

0.00 mm

06:25

10.8 C

1007.1 hpa

78 %

9.7 km/h aus 117

20.9 km/h aus SW

7.1 C

9.5 C

9.6 C

10.7 C

0 W/m

0.00 mm

06:30

10.7 C

1007.1 hpa

78 %

11.3 km/h aus 117

19.3 km/h aus SSW

7.0 C

9.1 C

9.2 C

10.6 C

0 W/m

0.00 mm

06:35

10.6 C

1007.1 hpa

78 %

9.7 km/h aus 117

25.7 km/h aus SSW

6.9 C

9.3 C

9.4 C

10.5 C

0 W/m

0.00 mm

06:40

10.6 C

1007.1 hpa

79 %

11.3 km/h aus 114

22.5 km/h aus SW

7.1 C

9.1 C

9.1 C

10.5 C

0 W/m

0.00 mm

06:45

10.6 C

1007.1 hpa

79 %

8.0 km/h aus 115

14.5 km/h aus WSW

7.1 C

9.6 C

9.7 C

10.5 C

0 W/m

0.00 mm

06:50

10.6 C

1007.1 hpa

79 %

8.0 km/h aus 117

17.7 km/h aus SW

7.1 C

9.6 C

9.7 C

10.5 C

0 W/m

0.00 mm

06:55

10.5 C

1007.1 hpa

79 %

9.7 km/h aus 116

17.7 km/h aus S

7.0 C

9.3 C

9.3 C

10.4 C

0 W/m

0.00 mm

07:00

10.5 C

1007.1 hpa

79 %

9.7 km/h aus 117

17.7 km/h aus SSW

7.0 C

9.3 C

9.3 C

10.4 C

0 W/m

0.00 mm

07:05

10.4 C

1007.1 hpa

79 %

11.3 km/h aus 116

20.9 km/h aus SW

7.0 C

8.9 C

9.0 C

10.4 C

0 W/m

0.00 mm

07:10

10.4 C

1007.1 hpa

79 %

11.3 km/h aus 115

24.1 km/h aus SW

6.9 C

8.8 C

8.9 C

10.3 C

0 W/m

0.00 mm

07:15

10.4 C

1007.1 hpa

79 %

9.7 km/h aus 117

17.7 km/h aus SSW

6.9 C

9.1 C

9.2 C

10.3 C

0 W/m

0.00 mm

07:20

10.3 C

1007.1 hpa

79 %

8.0 km/h aus 117

16.1 km/h aus SW

6.8 C

9.3 C

9.3 C

10.2 C

2 W/m

0.00 mm

07:25

10.2 C

1007.1 hpa

79 %

8.0 km/h aus 117

16.1 km/h aus WSW

6.7 C

9.2 C

9.3 C

10.2 C

6 W/m

0.00 mm

07:30

10.2 C

1007.3 hpa

79 %

8.0 km/h aus 116

14.5 km/h aus S

6.7 C

9.2 C

9.3 C

10.2 C

7 W/m

0.00 mm

07:35

10.2 C

1007.3 hpa

80 %

8.0 km/h aus 113

17.7 km/h aus S

6.9 C

9.2 C

9.2 C

10.2 C

9 W/m

0.00 mm

07:40

10.1 C

1007.3 hpa

80 %

9.7 km/h aus 115

16.1 km/h aus SW

6.8 C

8.8 C

8.8 C

10.1 C

12 W/m

0.00 mm

07:45

10.1 C

1007.3 hpa

80 %

12.9 km/h aus 117

22.5 km/h aus SW

6.8 C

8.1 C

8.1 C

10.1 C

18 W/m

0.00 mm

07:50

10.0 C

1007.3 hpa

80 %

9.7 km/h aus 115

19.3 km/h aus SSW

6.7 C

8.7 C

8.7 C

10.0 C

23 W/m

0.00 mm

07:55

10.0 C

1007.3 hpa

80 %

6.4 km/h aus 117

20.9 km/h aus SW

6.7 C

9.4 C

9.4 C

10.0 C

20 W/m

0.00 mm

08:00

9.9 C

1007.6 hpa

80 %

8.0 km/h aus 116

19.3 km/h aus WSW

6.7 C

8.9 C

8.9 C

9.9 C

14 W/m

0.00 mm

08:05

9.9 C

1007.6 hpa

81 %

8.0 km/h aus 113

17.7 km/h aus SW

6.8 C

8.9 C

8.9 C

9.9 C

10 W/m

0.00 mm

08:10

9.9 C

1007.6 hpa

81 %

9.7 km/h aus 116

20.9 km/h aus WSW

6.8 C

8.7 C

8.7 C

9.9 C

12 W/m

0.00 mm

08:15

9.9 C

1007.6 hpa

81 %

9.7 km/h aus 117

19.3 km/h aus SW

6.8 C

8.7 C

8.7 C

9.9 C

15 W/m

0.00 mm

08:20

9.9 C

1007.6 hpa

81 %

11.3 km/h aus 117

19.3 km/h aus SSW

6.8 C

8.4 C

8.4 C

9.9 C

20 W/m

0.00 mm

08:25

9.9 C

1007.6 hpa

81 %

8.0 km/h aus 117

14.5 km/h aus SW

6.8 C

8.9 C

8.9 C

9.9 C

25 W/m

0.00 mm

08:30

9.8 C

1007.7 hpa

81 %

8.0 km/h aus 115

19.3 km/h aus WSW

6.7 C

8.8 C

8.8 C

9.8 C

26 W/m

0.00 mm

08:35

9.8 C

1007.7 hpa

81 %

8.0 km/h aus 114

19.3 km/h aus WSW

6.7 C

8.8 C

8.8 C

9.8 C

26 W/m

0.00 mm

08:40

9.8 C

1007.7 hpa

81 %

8.0 km/h aus 117

16.1 km/h aus SW

6.7 C

8.8 C

8.8 C

9.8 C

26 W/m

0.00 mm

08:45

9.8 C

1007.7 hpa

81 %

9.7 km/h aus 117

19.3 km/h aus SSW

6.7 C

8.5 C

8.5 C

9.8 C

41 W/m

0.00 mm

08:50

9.8 C

1007.7 hpa

81 %

9.7 km/h aus 117

19.3 km/h aus SSW

6.7 C

8.5 C

8.5 C

9.8 C

57 W/m

0.00 mm

08:55

9.9 C

1007.7 hpa

81 %

9.7 km/h aus 115

16.1 km/h aus SSW

6.8 C

8.6 C

8.6 C

9.9 C

69 W/m

0.00 mm

09:00

9.9 C

1007.7 hpa

81 %

9.7 km/h aus 114

19.3 km/h aus SSW

6.8 C

8.7 C

8.7 C

9.9 C

62 W/m

0.00 mm

09:05

9.9 C

1007.7 hpa

81 %

9.7 km/h aus 116

19.3 km/h aus SSW

6.8 C

8.7 C

8.7 C

9.9 C

70 W/m

0.00 mm

09:10

9.9 C

1007.7 hpa

81 %

9.7 km/h aus 117

19.3 km/h aus SW

6.8 C

8.7 C

8.7 C

9.9 C

103 W/m

0.00 mm

09:15

10.0 C

1007.8 hpa

81 %

11.3 km/h aus 117

20.9 km/h aus SW

6.9 C

8.4 C

8.4 C

10.0 C

100 W/m

0.00 mm

09:20

10.0 C

1007.8 hpa

81 %

8.0 km/h aus 117

16.1 km/h aus SSW

6.9 C

9.0 C

9.0 C

10.0 C

96 W/m

0.00 mm

09:25

10.1 C

1007.8 hpa

81 %

9.7 km/h aus 115

17.7 km/h aus SSW

6.9 C

8.8 C

8.8 C

10.1 C

80 W/m

0.00 mm

09:30

10.1 C

1007.9 hpa

81 %

8.0 km/h aus 114

16.1 km/h aus S

6.9 C

9.1 C

9.1 C

10.1 C

75 W/m

0.00 mm

09:35

10.1 C

1007.9 hpa

81 %

11.3 km/h aus 117

19.3 km/h aus SSW

6.9 C

8.5 C

8.5 C

10.1 C

68 W/m

0.00 mm

09:40

10.1 C

1007.9 hpa

82 %

8.0 km/h aus 117

17.7 km/h aus SSW

7.1 C

9.1 C

9.1 C

10.1 C

163 W/m

0.00 mm

09:45

10.3 C

1007.8 hpa

82 %

8.0 km/h aus 117

14.5 km/h aus SW

7.3 C

9.3 C

9.3 C

10.3 C

200 W/m

0.00 mm

09:50

10.4 C

1007.8 hpa

82 %

8.0 km/h aus 115

16.1 km/h aus SSW

7.4 C

9.4 C

9.4 C

10.4 C

228 W/m

0.00 mm

09:55

10.6 C

1007.8 hpa

81 %

8.0 km/h aus 114

16.1 km/h aus S

7.4 C

9.6 C

9.7 C

10.5 C

251 W/m

0.00 mm

10:00

10.7 C

1007.9 hpa

81 %

9.7 km/h aus 117

16.1 km/h aus SSW

7.5 C

9.4 C

9.5 C

10.6 C

256 W/m

0.00 mm

10:05

10.9 C

1007.9 hpa

80 %

8.0 km/h aus 116

17.7 km/h aus SSW

7.6 C

9.9 C

10.1 C

10.8 C

288 W/m

0.00 mm

10:10

10.9 C

1007.9 hpa

80 %

9.7 km/h aus 117

20.9 km/h aus SSW

7.6 C

9.7 C

9.8 C

10.8 C

345 W/m

0.00 mm

10:15

11.2 C

1008.1 hpa

80 %

9.7 km/h aus 114

17.7 km/h aus SW

7.8 C

9.9 C

10.1 C

11.1 C

303 W/m

0.00 mm

10:20

11.1 C

1008.1 hpa

81 %

9.7 km/h aus 114

24.1 km/h aus WSW

8.0 C

9.9 C

10.0 C

11.0 C

196 W/m

0.00 mm

10:25

11.0 C

1008.1 hpa

80 %

11.3 km/h aus 115

19.3 km/h aus SW

7.7 C

9.6 C

9.7 C

10.9 C

129 W/m

0.00 mm

10:30

10.9 C

1008.2 hpa

81 %

9.7 km/h aus 118

19.3 km/h aus WSW

7.8 C

9.7 C

9.8 C

10.8 C

137 W/m

0.00 mm

10:35

10.9 C

1008.2 hpa

82 %

6.4 km/h aus 117

12.9 km/h aus WSW

8.0 C

10.4 C

10.4 C

10.9 C

210 W/m

0.00 mm

10:40

11.2 C

1008.2 hpa

81 %

8.0 km/h aus 115

22.5 km/h aus WSW

8.1 C

10.3 C

10.4 C

11.1 C

333 W/m

0.00 mm

10:45

11.3 C

1008.1 hpa

80 %

14.5 km/h aus 114

29.0 km/h aus SSW

8.0 C

9.1 C

9.2 C

11.2 C

354 W/m

0.00 mm

10:50

11.6 C

1008.1 hpa

80 %

9.7 km/h aus 116

22.5 km/h aus SSW

8.3 C

10.4 C

10.6 C

11.4 C

379 W/m

0.00 mm

10:55

12.2 C

1008.1 hpa

80 %

9.7 km/h aus 116

17.7 km/h aus SSW

8.8 C

11.1 C

11.3 C

12.0 C

490 W/m

0.00 mm

11:00

12.3 C

1008.1 hpa

78 %

9.7 km/h aus 117

20.9 km/h aus SW

8.6 C

11.2 C

11.4 C

12.1 C

433 W/m

0.00 mm

11:05

12.2 C

1008.1 hpa

79 %

11.3 km/h aus 116

17.7 km/h aus S

8.6 C

10.9 C

11.1 C

12.0 C

380 W/m

0.00 mm

11:10

12.3 C

1008.1 hpa

78 %

9.7 km/h aus 115

19.3 km/h aus SW

8.6 C

11.2 C

11.4 C

12.1 C

338 W/m

0.00 mm

11:15

12.3 C

1008.0 hpa

78 %

11.3 km/h aus 116

22.5 km/h aus SW

8.6 C

11.0 C

11.2 C

12.1 C

421 W/m

0.00 mm

11:20

12.4 C

1008.0 hpa

78 %

12.9 km/h aus 115

25.7 km/h aus WSW

8.7 C

10.8 C

11.0 C

12.2 C

425 W/m

0.00 mm

11:25

12.8 C

1008.0 hpa

79 %

9.7 km/h aus 117

19.3 km/h aus SW

9.2 C

11.8 C

12.0 C

12.6 C

438 W/m

0.00 mm

11:30

12.6 C

1008.0 hpa

77 %

12.9 km/h aus 115

24.1 km/h aus SW

8.7 C

10.9 C

11.2 C

12.4 C

297 W/m

0.00 mm

11:35

12.3 C

1008.0 hpa

78 %

11.3 km/h aus 115

24.1 km/h aus WSW

8.6 C

10.9 C

11.2 C

12.1 C

133 W/m

0.00 mm

11:40

12.1 C

1008.0 hpa

79 %

14.5 km/h aus 114

22.5 km/h aus SW

8.6 C

10.1 C

10.2 C

11.9 C

94 W/m

0.00 mm

11:45

12.1 C

1008.1 hpa

79 %

11.3 km/h aus 117

22.5 km/h aus W

8.5 C

10.7 C

10.9 C

11.9 C

86 W/m

0.00 mm

11:50

11.9 C

1008.1 hpa

79 %

12.9 km/h aus 114

25.7 km/h aus WSW

8.4 C

10.2 C

10.3 C

11.7 C

109 W/m

0.00 mm

11:55

11.6 C

1008.1 hpa

81 %

9.7 km/h aus 116

20.9 km/h aus SW

8.5 C

10.5 C

10.6 C

11.5 C

109 W/m

0.00 mm

12:00

11.6 C

1008.1 hpa

81 %

9.7 km/h aus 115

20.9 km/h aus SW

8.5 C

10.5 C

10.6 C

11.5 C

76 W/m

0.00 mm

12:05

11.6 C

1008.1 hpa

81 %

9.7 km/h aus 116

19.3 km/h aus WSW

8.4 C

10.4 C

10.6 C

11.4 C

48 W/m

0.00 mm

12:10

11.6 C

1008.1 hpa

81 %

11.3 km/h aus 117

19.3 km/h aus SSW

8.4 C

10.2 C

10.3 C

11.4 C

38 W/m

0.00 mm

12:15

11.6 C

1008.2 hpa

81 %

9.7 km/h aus 117

17.7 km/h aus SW

8.4 C

10.4 C

10.6 C

11.4 C

31 W/m

0.00 mm

12:20

11.4 C

1008.2 hpa

81 %

11.3 km/h aus 116

20.9 km/h aus SW

8.3 C

10.1 C

10.2 C

11.3 C

40 W/m

0.00 mm

12:25

11.4 C

1008.2 hpa

82 %

8.0 km/h aus 113

16.1 km/h aus WSW

8.5 C

10.6 C

10.7 C

11.3 C

31 W/m

0.00 mm

12:30

11.4 C

1008.2 hpa

82 %

6.4 km/h aus 115

16.1 km/h aus SW

8.4 C

10.9 C

11.0 C

11.3 C

23 W/m

0.00 mm

12:35

11.4 C

1008.2 hpa

82 %

8.0 km/h aus 118

16.1 km/h aus WSW

8.4 C

10.6 C

10.7 C

11.3 C

32 W/m

0.00 mm

12:40

11.4 C

1008.2 hpa

82 %

6.4 km/h aus 117

17.7 km/h aus SW

8.4 C

10.9 C

11.0 C

11.3 C

36 W/m

0.00 mm

12:45

11.3 C

1008.3 hpa

82 %

6.4 km/h aus 117

16.1 km/h aus SSW

8.4 C

10.8 C

10.9 C

11.2 C

34 W/m

0.00 mm

12:50

11.3 C

1008.3 hpa

83 %

6.4 km/h aus 115

16.1 km/h aus SW

8.5 C

10.8 C

10.8 C

11.2 C

35 W/m

0.00 mm

12:55

11.3 C

1008.3 hpa

83 %

8.0 km/h aus 114

17.7 km/h aus SSW

8.5 C

10.4 C

10.5 C

11.2 C

27 W/m

0.00 mm

13:00

11.2 C

1008.4 hpa

83 %

8.0 km/h aus 115

16.1 km/h aus SW

8.4 C

10.4 C

10.4 C

11.2 C

28 W/m

0.00 mm

13:05

11.2 C

1008.4 hpa

84 %

8.0 km/h aus 117

17.7 km/h aus SW

8.6 C

10.3 C

10.4 C

11.1 C

30 W/m

0.00 mm

13:10

11.2 C

1008.4 hpa

84 %

6.4 km/h aus 116

12.9 km/h aus SW

8.6 C

10.7 C

10.7 C

11.1 C

49 W/m

0.00 mm

13:15

11.2 C

1008.4 hpa

84 %

8.0 km/h aus 116

14.5 km/h aus SSW

8.6 C

10.3 C

10.4 C

11.1 C

78 W/m

0.00 mm

13:20

11.2 C

1008.4 hpa

84 %

8.0 km/h aus 114

16.1 km/h aus SSW

8.6 C

10.3 C

10.4 C

11.1 C

68 W/m

0.00 mm

13:25

11.2 C

1008.4 hpa

84 %

9.7 km/h aus 117

20.9 km/h aus SW

8.6 C

10.0 C

10.1 C

11.1 C

89 W/m

0.00 mm

13:30

11.2 C

1008.4 hpa

84 %

9.7 km/h aus 117

16.1 km/h aus SSW

8.6 C

10.1 C

10.1 C

11.2 C

131 W/m

0.00 mm

13:35

11.3 C

1008.4 hpa

84 %

8.0 km/h aus 116

14.5 km/h aus SW

8.7 C

10.5 C

10.6 C

11.3 C

135 W/m

0.00 mm

13:40

11.4 C

1008.4 hpa

85 %

8.0 km/h aus 118

20.9 km/h aus WSW

9.0 C

10.7 C

10.7 C

11.4 C

152 W/m

0.00 mm

13:45

11.7 C

1008.3 hpa

84 %

6.4 km/h aus 114

19.3 km/h aus WSW

9.1 C

11.3 C

11.3 C

11.7 C

206 W/m

0.00 mm

13:50

11.8 C

1008.3 hpa

83 %

9.7 km/h aus 116

22.5 km/h aus SW

9.0 C

10.7 C

10.8 C

11.7 C

130 W/m

0.00 mm

13:55

11.7 C

1008.3 hpa

83 %

4.8 km/h aus 116

12.9 km/h aus SSW

8.9 C

11.6 C

11.7 C

11.6 C

116 W/m

0.00 mm

14:00

11.7 C

1008.4 hpa

84 %

6.4 km/h aus 117

14.5 km/h aus SW

9.1 C

11.2 C

11.3 C

11.6 C

139 W/m

0.00 mm

14:05

11.7 C

1008.4 hpa

84 %

6.4 km/h aus 116

16.1 km/h aus SW

9.1 C

11.3 C

11.3 C

11.7 C

88 W/m

0.00 mm

14:10

11.7 C

1008.4 hpa

84 %

9.7 km/h aus 114

17.7 km/h aus SW

9.1 C

10.7 C

10.7 C

11.7 C

67 W/m

0.00 mm

14:15

11.7 C

1008.5 hpa

84 %

6.4 km/h aus 116

14.5 km/h aus SW

9.1 C

11.3 C

11.3 C

11.7 C

51 W/m

0.00 mm

14:20

11.7 C

1008.5 hpa

84 %

11.3 km/h aus 116

19.3 km/h aus WSW

9.1 C

10.4 C

10.5 C

11.7 C

65 W/m

0.00 mm

14:25

11.7 C

1008.5 hpa

84 %

9.7 km/h aus 116

20.9 km/h aus WSW

9.1 C

10.7 C

10.7 C

11.7 C

78 W/m

0.00 mm

14:30

11.7 C

1008.7 hpa

84 %

9.7 km/h aus 114

20.9 km/h aus SW

9.1 C

10.6 C

10.7 C

11.6 C

44 W/m

0.00 mm

14:35

11.7 C

1008.7 hpa

84 %

11.3 km/h aus 105

20.9 km/h aus WSW

9.1 C

10.4 C

10.4 C

11.6 C

31 W/m

0.00 mm

14:40

11.6 C

1008.7 hpa

84 %

11.3 km/h aus 105

19.3 km/h aus WSW

9.0 C

10.3 C

10.4 C

11.6 C

36 W/m

0.00 mm

14:45

11.6 C

1008.7 hpa

84 %

8.0 km/h aus 114

19.3 km/h aus SW

9.0 C

10.8 C

10.9 C

11.6 C

49 W/m

0.00 mm

14:50

11.6 C

1008.7 hpa

85 %

9.7 km/h aus 117

19.3 km/h aus SW

9.1 C

10.5 C

10.6 C

11.5 C

56 W/m

0.00 mm

14:55

11.6 C

1008.7 hpa

85 %

12.9 km/h aus 110

22.5 km/h aus SW

9.1 C

9.9 C

9.9 C

11.5 C

52 W/m

0.00 mm

15:00

11.5 C

1008.8 hpa

85 %

11.3 km/h aus 109

20.9 km/h aus SW

9.1 C

10.2 C

10.2 C

11.4 C

63 W/m

0.00 mm

15:05

11.5 C

1008.8 hpa

85 %

9.7 km/h aus 109

17.7 km/h aus S

9.1 C

10.4 C

10.4 C

11.4 C

65 W/m

0.00 mm

15:10

11.5 C

1008.8 hpa

85 %

8.0 km/h aus 115

17.7 km/h aus WSW

9.1 C

10.7 C

10.8 C

11.4 C

70 W/m

0.00 mm

15:15

11.5 C

1009.0 hpa

85 %

6.4 km/h aus 116

17.7 km/h aus WSW

9.1 C

11.1 C

11.1 C

11.4 C

67 W/m

0.00 mm

15:20

11.5 C

1009.0 hpa

85 %

9.7 km/h aus 116

19.3 km/h aus SW

9.1 C

10.4 C

10.4 C

11.4 C

58 W/m

0.00 mm

15:25

11.4 C

1009.0 hpa

85 %

9.7 km/h aus 113

17.7 km/h aus SSW

9.0 C

10.3 C

10.4 C

11.4 C

46 W/m

0.00 mm

15:30

11.4 C

1009.2 hpa

85 %

9.7 km/h aus 109

19.3 km/h aus S

9.0 C

10.3 C

10.4 C

11.4 C

47 W/m

0.00 mm

15:35

11.4 C

1009.2 hpa

85 %

9.7 km/h aus 111

19.3 km/h aus SW

9.0 C

10.3 C

10.3 C

11.4 C

44 W/m

0.00 mm

15:40

11.4 C

1009.2 hpa

86 %

9.7 km/h aus 116

19.3 km/h aus SW

9.1 C

10.3 C

10.3 C

11.4 C

60 W/m

0.00 mm

15:45

11.3 C

1009.2 hpa

86 %

6.4 km/h aus 114

14.5 km/h aus WSW

9.1 C

10.9 C

10.9 C

11.3 C

52 W/m

0.00 mm

15:50

11.4 C

1009.2 hpa

86 %

6.4 km/h aus 118

16.1 km/h aus SW

9.1 C

11.0 C

11.0 C

11.4 C

45 W/m

0.00 mm

15:55

11.3 C

1009.2 hpa

86 %

9.7 km/h aus 113

16.1 km/h aus SSW

9.1 C

10.3 C

10.3 C

11.3 C

31 W/m

0.00 mm

16:00

11.3 C

1009.3 hpa

86 %

8.0 km/h aus 112

16.1 km/h aus WSW

9.0 C

10.5 C

10.5 C

11.3 C

17 W/m

0.00 mm

16:05

11.3 C

1009.3 hpa

86 %

9.7 km/h aus 113

19.3 km/h aus SW

9.0 C

10.2 C

10.2 C

11.3 C

12 W/m

0.00 mm

16:10

11.2 C

1009.3 hpa

86 %

8.0 km/h aus 116

14.5 km/h aus SW

9.0 C

10.4 C

10.4 C

11.2 C

11 W/m

0.00 mm

16:15

11.2 C

1009.4 hpa

87 %

9.7 km/h aus 115

17.7 km/h aus S

9.1 C

10.1 C

10.1 C

11.2 C

11 W/m

0.00 mm

16:20

11.2 C

1009.4 hpa

87 %

6.4 km/h aus 114

16.1 km/h aus SW

9.1 C

10.8 C

10.7 C

11.2 C

9 W/m

0.00 mm

16:25

11.1 C

1009.4 hpa

87 %

8.0 km/h aus 115

16.1 km/h aus WSW

9.0 C

10.4 C

10.3 C

11.2 C

8 W/m

0.00 mm

16:30

11.1 C

1009.5 hpa

87 %

8.0 km/h aus 117

16.1 km/h aus WSW

9.0 C

10.3 C

10.3 C

11.1 C

6 W/m

0.00 mm

16:35

11.1 C

1009.5 hpa

87 %

6.4 km/h aus 117

14.5 km/h aus SW

9.0 C

10.7 C

10.6 C

11.1 C

0 W/m

0.00 mm

16:40

11.1 C

1009.5 hpa

87 %

6.4 km/h aus 117

14.5 km/h aus SSW

9.0 C

10.7 C

10.6 C

11.1 C

0 W/m

0.00 mm

16:45

11.1 C

1009.7 hpa

88 %

6.4 km/h aus 114

16.1 km/h aus SSW

9.1 C

10.7 C

10.6 C

11.1 C

0 W/m

0.00 mm

16:50

11.0 C

1009.7 hpa

88 %

6.4 km/h aus 111

11.3 km/h aus WSW

9.1 C

10.6 C

10.6 C

11.1 C

0 W/m

0.00 mm

16:55

11.0 C

1009.7 hpa

88 %

6.4 km/h aus 114

14.5 km/h aus SSW

9.1 C

10.6 C

10.6 C

11.1 C

0 W/m

0.00 mm

17:00

10.9 C

1009.8 hpa

88 %

6.4 km/h aus 117

11.3 km/h aus SW

9.0 C

10.5 C

10.4 C

11.0 C

0 W/m

0.00 mm

17:05

10.9 C

1009.8 hpa

88 %

3.2 km/h aus 117

8.0 km/h aus S

9.0 C

11.0 C

10.9 C

11.0 C

0 W/m

0.00 mm

17:10

10.9 C

1009.8 hpa

88 %

3.2 km/h aus 116

8.0 km/h aus WSW

9.0 C

10.9 C

10.9 C

10.9 C

0 W/m

0.00 mm

17:15

10.9 C

1009.9 hpa

88 %

3.2 km/h aus 113

8.0 km/h aus SSW

9.0 C

10.9 C

10.9 C

10.9 C

0 W/m

0.00 mm

17:20

10.9 C

1009.9 hpa

88 %

4.8 km/h aus 115

9.7 km/h aus SSW

9.0 C

10.9 C

10.8 C

10.9 C

0 W/m

0.00 mm

17:25

10.8 C

1009.9 hpa

88 %

6.4 km/h aus 117

11.3 km/h aus SW

8.9 C

10.4 C

10.3 C

10.9 C

0 W/m

0.00 mm

17:30

10.8 C

1010.2 hpa

88 %

4.8 km/h aus 117

9.7 km/h aus SW

8.9 C

10.8 C

10.8 C

10.9 C

0 W/m

0.00 mm

17:35

10.8 C

1010.2 hpa

88 %

4.8 km/h aus 116

8.0 km/h aus SSW

8.9 C

10.8 C

10.8 C

10.9 C

0 W/m

0.00 mm

17:40

10.8 C

1010.2 hpa

88 %

6.4 km/h aus 115

9.7 km/h aus SSW

8.9 C

10.4 C

10.3 C

10.9 C

0 W/m

0.00 mm

17:45

10.8 C

1010.3 hpa

88 %

4.8 km/h aus 114

6.4 km/h aus S

8.9 C

10.7 C

10.7 C

10.8 C

0 W/m

0.00 mm

17:50

10.8 C

1010.3 hpa

89 %

4.8 km/h aus 117

9.7 km/h aus S

9.0 C

10.8 C

10.7 C

10.9 C

0 W/m

0.00 mm

17:55

10.7 C

1010.3 hpa

89 %

4.8 km/h aus 117

8.0 km/h aus SSW

9.0 C

10.7 C

10.6 C

10.8 C

0 W/m

0.00 mm

18:00

10.7 C

1010.3 hpa

89 %

6.4 km/h aus 117

8.0 km/h aus SSW

9.0 C

10.3 C

10.2 C

10.8 C

0 W/m

0.00 mm

18:05

10.7 C

1010.3 hpa

89 %

6.4 km/h aus 116

9.7 km/h aus SSW

8.9 C

10.2 C

10.1 C

10.8 C

0 W/m

0.00 mm

18:10

10.7 C

1010.3 hpa

89 %

4.8 km/h aus 111

8.0 km/h aus S

8.9 C

10.7 C

10.6 C

10.8 C

0 W/m

0.00 mm

18:15

10.7 C

1010.5 hpa

89 %

6.4 km/h aus 102

11.3 km/h aus SSW

8.9 C

10.2 C

10.1 C

10.8 C

0 W/m

0.00 mm

18:20

10.6 C

1010.5 hpa

89 %

6.4 km/h aus 112

14.5 km/h aus SSW

8.9 C

10.2 C

10.1 C

10.7 C

0 W/m

0.00 mm

18:25

10.6 C

1010.5 hpa

89 %

6.4 km/h aus 117

11.3 km/h aus SSW

8.9 C

10.2 C

10.1 C

10.7 C

0 W/m

0.00 mm

18:30

10.6 C

1010.8 hpa

89 %

4.8 km/h aus 117

9.7 km/h aus S

8.9 C

10.6 C

10.5 C

10.7 C

0 W/m

0.00 mm

18:35

10.6 C

1010.8 hpa

89 %

4.8 km/h aus 114

14.5 km/h aus SSW

8.9 C

10.6 C

10.5 C

10.7 C

0 W/m

0.00 mm

18:40

10.6 C

1010.8 hpa

89 %

6.4 km/h aus 113

11.3 km/h aus S

8.9 C

10.2 C

10.1 C

10.7 C

0 W/m

0.00 mm

18:45

10.7 C

1010.8 hpa

90 %

6.4 km/h aus 116

14.5 km/h aus S

9.1 C

10.2 C

10.1 C

10.8 C

0 W/m

0.00 mm

18:50

10.6 C

1010.8 hpa

90 %

6.4 km/h aus 117

11.3 km/h aus SW

9.0 C

10.2 C

10.1 C

10.7 C

0 W/m

0.00 mm

18:55

10.6 C

1010.8 hpa

90 %

4.8 km/h aus 117

8.0 km/h aus SSW

9.0 C

10.6 C

10.5 C

10.7 C

0 W/m

0.00 mm

19:00

10.6 C

1010.9 hpa

90 %

6.4 km/h aus 115

9.7 km/h aus SSW

9.0 C

10.2 C

10.1 C

10.7 C

0 W/m

0.00 mm

19:05

10.6 C

1010.9 hpa

90 %

4.8 km/h aus 113

9.7 km/h aus SSW

9.0 C

10.6 C

10.5 C

10.7 C

0 W/m

0.00 mm

19:10

10.6 C

1010.9 hpa

90 %

8.0 km/h aus 117

16.1 km/h aus SW

9.0 C

9.8 C

9.7 C

10.7 C

0 W/m

0.00 mm

19:15

10.6 C

1011.0 hpa

90 %

6.4 km/h aus 117

16.1 km/h aus SSW

9.0 C

10.1 C

10.0 C

10.7 C

0 W/m

0.00 mm

19:20

10.6 C

1011.0 hpa

90 %

6.4 km/h aus 117

12.9 km/h aus SW

9.0 C

10.1 C

10.0 C

10.7 C

0 W/m

0.00 mm

19:25

10.6 C

1011.0 hpa

90 %

4.8 km/h aus 117

6.4 km/h aus SE

9.0 C

10.6 C

10.4 C

10.7 C

0 W/m

0.00 mm

19:30

10.6 C

1011.0 hpa

90 %

3.2 km/h aus 114

6.4 km/h aus S

9.0 C

10.7 C

10.6 C

10.7 C

0 W/m

0.00 mm

19:35

10.5 C

1011.0 hpa

90 %

4.8 km/h aus 114

11.3 km/h aus SSW

8.9 C

10.5 C

10.4 C

10.6 C

0 W/m

0.00 mm

19:40

10.5 C

1011.0 hpa

90 %

4.8 km/h aus 117

8.0 km/h aus SSW

8.9 C

10.5 C

10.4 C

10.6 C

0 W/m

0.00 mm

19:45

10.5 C

1010.9 hpa

90 %

4.8 km/h aus 117

8.0 km/h aus SSW

8.9 C

10.5 C

10.4 C

10.6 C

0 W/m

0.00 mm

19:50

10.5 C

1010.9 hpa

90 %

3.2 km/h aus 117

6.4 km/h aus S

8.9 C

10.6 C

10.5 C

10.6 C

0 W/m

0.00 mm

19:55

10.4 C

1010.9 hpa

90 %

4.8 km/h aus 115

8.0 km/h aus S

8.9 C

10.4 C

10.3 C

10.6 C

0 W/m

0.00 mm

20:00

10.4 C

1010.8 hpa

90 %

4.8 km/h aus 115

8.0 km/h aus S

8.9 C

10.4 C

10.3 C

10.6 C

0 W/m

0.00 mm

20:05

10.4 C

1010.8 hpa

90 %

4.8 km/h aus 118

8.0 km/h aus S

8.8 C

10.4 C

10.3 C

10.5 C

0 W/m

0.00 mm

20:10

10.4 C

1010.8 hpa

90 %

4.8 km/h aus 116

8.0 km/h aus S

8.8 C

10.4 C

10.3 C

10.5 C

0 W/m

0.00 mm

20:15

10.3 C

1010.8 hpa

90 %

4.8 km/h aus 116

9.7 km/h aus S

8.8 C

10.3 C

10.2 C

10.4 C

0 W/m

0.00 mm

20:20

10.3 C

1010.8 hpa

91 %

4.8 km/h aus 117

8.0 km/h aus S

8.9 C

10.4 C

10.2 C

10.5 C

0 W/m

0.00 mm

20:25

10.3 C

1010.8 hpa

91 %

4.8 km/h aus 115

8.0 km/h aus S

8.9 C

10.4 C

10.2 C

10.5 C

0 W/m

0.00 mm

20:30

10.3 C

1011.0 hpa

91 %

4.8 km/h aus 115

8.0 km/h aus S

8.9 C

10.4 C

10.2 C

10.5 C

0 W/m

0.00 mm

20:35

10.3 C

1011.0 hpa

91 %

4.8 km/h aus 117

9.7 km/h aus SSW

8.9 C

10.4 C

10.2 C

10.5 C

0 W/m

0.00 mm

20:40

10.3 C

1011.0 hpa

91 %

4.8 km/h aus 117

6.4 km/h aus SSW

8.9 C

10.4 C

10.2 C

10.5 C

0 W/m

0.00 mm

20:45

10.3 C

1011.2 hpa

91 %

3.2 km/h aus 116

6.4 km/h aus SSW

8.9 C

10.5 C

10.3 C

10.5 C

0 W/m

0.00 mm

20:50

10.3 C

1011.2 hpa

91 %

3.2 km/h aus 116

6.4 km/h aus SSW

8.9 C

10.4 C

10.3 C

10.4 C

0 W/m

0.00 mm

20:55

10.3 C

1011.2 hpa

91 %

1.6 km/h aus 114

4.8 km/h aus SSW

8.9 C

10.4 C

10.3 C

10.4 C

0 W/m

0.00 mm

21:00

10.3 C

1011.3 hpa

91 %

1.6 km/h aus 116

4.8 km/h aus SSW

8.9 C

10.4 C

10.3 C

10.4 C

0 W/m

0.00 mm

21:05

10.2 C

1011.3 hpa

91 %

1.6 km/h aus 117

3.2 km/h aus SSW

8.8 C

10.4 C

10.2 C

10.4 C

0 W/m

0.00 mm

21:10

10.2 C

1011.3 hpa

91 %

1.6 km/h aus 118

3.2 km/h aus SSW

8.8 C

10.4 C

10.2 C

10.4 C

0 W/m

0.00 mm

21:15

10.2 C

1011.3 hpa

90 %

0.0 km/h aus 117

3.2 km/h aus SSW

8.6 C

10.3 C

10.2 C

10.3 C

0 W/m

0.00 mm

21:20

10.1 C

1011.3 hpa

90 %

3.2 km/h aus 115

4.8 km/h aus SSW

8.5 C

10.3 C

10.1 C

10.3 C

0 W/m

0.00 mm

21:25

10.1 C

1011.3 hpa

90 %

3.2 km/h aus 115

6.4 km/h aus SSW

8.5 C

10.2 C

10.1 C

10.2 C

0 W/m

0.00 mm

21:30

10.1 C

1011.7 hpa

91 %

3.2 km/h aus 117

6.4 km/h aus SSW

8.7 C

10.2 C

10.1 C

10.2 C

0 W/m

0.00 mm

21:35

10.1 C

1011.7 hpa

91 %

3.2 km/h aus 116

4.8 km/h aus SSW

8.7 C

10.2 C

10.1 C

10.2 C

0 W/m

0.00 mm

21:40

10.0 C

1011.7 hpa

91 %

3.2 km/h aus 116

4.8 km/h aus SSW

8.6 C

10.2 C

10.0 C

10.2 C

0 W/m

0.00 mm

21:45

10.0 C

1011.9 hpa

91 %

3.2 km/h aus 117

4.8 km/h aus SSW

8.6 C

10.2 C

10.0 C

10.2 C

0 W/m

0.00 mm

21:50

9.9 C

1011.9 hpa

91 %

3.2 km/h aus 113

4.8 km/h aus SSW

8.5 C

10.1 C

9.9 C

10.1 C

0 W/m

0.00 mm

21:55

9.9 C

1011.9 hpa

91 %

3.2 km/h aus 115

6.4 km/h aus SSW

8.5 C

10.1 C

9.9 C

10.1 C

0 W/m

0.00 mm

22:00

9.9 C

1012.2 hpa

91 %

1.6 km/h aus 117

4.8 km/h aus SSW

8.5 C

10.1 C

9.9 C

10.1 C

0 W/m

0.00 mm

22:05

9.8 C

1012.2 hpa

91 %

3.2 km/h aus 116

4.8 km/h aus SSW

8.4 C

10.0 C

9.8 C

10.0 C

0 W/m

0.00 mm

22:10

9.8 C

1012.2 hpa

90 %

4.8 km/h aus 116

14.5 km/h aus WSW

8.2 C

9.7 C

9.6 C

9.9 C

0 W/m

0.00 mm

22:15

9.7 C

1012.3 hpa

91 %

4.8 km/h aus 117

6.4 km/h aus WSW

8.3 C

9.7 C

9.5 C

9.9 C

0 W/m

0.00 mm

22:20

9.7 C

1012.3 hpa

91 %

4.8 km/h aus 113

9.7 km/h aus WSW

8.3 C

9.6 C

9.4 C

9.8 C

0 W/m

0.00 mm

22:25

9.6 C

1012.3 hpa

91 %

4.8 km/h aus 117

11.3 km/h aus WSW

8.2 C

9.6 C

9.4 C

9.8 C

0 W/m

0.00 mm

22:30

9.6 C

1012.3 hpa

91 %

3.2 km/h aus 117

11.3 km/h aus SW

8.2 C

9.7 C

9.6 C

9.7 C

0 W/m

0.00 mm

22:35

9.6 C

1012.3 hpa

91 %

4.8 km/h aus 116

11.3 km/h aus WSW

8.2 C

9.4 C

9.3 C

9.7 C

0 W/m

0.00 mm

22:40

9.6 C

1012.3 hpa

91 %

4.8 km/h aus 117

8.0 km/h aus WSW

8.2 C

9.4 C

9.3 C

9.7 C

0 W/m

0.00 mm

22:45

9.5 C

1012.3 hpa

91 %

3.2 km/h aus 116

6.4 km/h aus WSW

8.1 C

9.7 C

9.5 C

9.7 C

0 W/m

0.00 mm

22:50

9.4 C

1012.3 hpa

91 %

1.6 km/h aus 113

4.8 km/h aus WSW

8.0 C

9.6 C

9.4 C

9.6 C

0 W/m

0.00 mm

22:55

9.4 C

1012.3 hpa

91 %

3.2 km/h aus 117

4.8 km/h aus WSW

8.0 C

9.6 C

9.4 C

9.6 C

0 W/m

0.00 mm

23:00

9.4 C

1012.5 hpa

91 %

3.2 km/h aus 117

6.4 km/h aus WSW

8.0 C

9.6 C

9.4 C

9.6 C

0 W/m

0.00 mm

23:05

9.3 C

1012.5 hpa

91 %

1.6 km/h aus 116

6.4 km/h aus WSW

7.9 C

9.5 C

9.3 C

9.5 C

0 W/m

0.00 mm

23:10

9.3 C

1012.5 hpa

91 %

1.6 km/h aus 117

3.2 km/h aus WSW

7.9 C

9.4 C

9.3 C

9.4 C

0 W/m

0.00 mm

23:15

9.2 C

1012.5 hpa

91 %

1.6 km/h aus 114

4.8 km/h aus WSW

7.8 C

9.4 C

9.2 C

9.4 C

0 W/m

0.00 mm

23:20

9.2 C

1012.5 hpa

91 %

1.6 km/h aus 115

6.4 km/h aus WSW

7.8 C

9.4 C

9.2 C

9.4 C

0 W/m

0.00 mm

23:25

9.2 C

1012.5 hpa

91 %

3.2 km/h aus 117

8.0 km/h aus WSW

7.8 C

9.3 C

9.2 C

9.3 C

0 W/m

0.00 mm

23:30

9.2 C

1012.6 hpa

91 %

3.2 km/h aus 117

6.4 km/h aus SSW

7.8 C

9.3 C

9.2 C

9.3 C

0 W/m

0.00 mm

23:35

9.1 C

1012.6 hpa

91 %

3.2 km/h aus 116

4.8 km/h aus SSW

7.7 C

9.3 C

9.1 C

9.3 C

0 W/m

0.00 mm

23:40

9.1 C

1012.6 hpa

91 %

3.2 km/h aus 117

6.4 km/h aus SSW

7.7 C

9.2 C

9.1 C

9.2 C

0 W/m

0.00 mm

23:45

8.9 C

1012.7 hpa

91 %

4.8 km/h aus 114

8.0 km/h aus SSW

7.6 C

8.7 C

8.6 C

9.1 C

0 W/m

0.00 mm

23:50

8.8 C

1012.7 hpa

91 %

4.8 km/h aus 114

6.4 km/h aus SSW

7.4 C

8.6 C

8.5 C

8.9 C

0 W/m

0.00 mm

23:55

8.7 C

1012.7 hpa

90 %

3.2 km/h aus 116

6.4 km/h aus SSW

7.1 C

8.8 C

8.7 C

8.8 C

0 W/m

0.00 mm